Theta_e
302 302 302 302 302 302 302 302 302 302 303 303 303 304 306 307 309 311 311 313 312 313 311 312 315 313 312 311 312 310 311 313 317 334 345 344 342 339 340 349 345 345 343 342 347
300 301 302 302 302 302 302 302 302 302 302 303 304 304 305 307 311 315 315 316 313 313 316 316 313 312 309 312 311 311 311 313 314 334 344 344 339 341 349 348 348 345 345 345 346
300 301 301 301 301 302 302 302 302 302 302 303 304 304 306 308 313 314 323 321 317 313 315 317 314 312 312 311 312 310 311 312 315 323 342 344 338 342 351 352 347 347 347 346 346
300 300 299 299 300 301 302 302 303 302 303 304 304 305 307 315 310 323 321 321 314 314 316 314 310 310 311 313 311 313 311 312 314 333 340 342 340 343 348 347 342 344 345 344 345
299 299 299 300 300 301 302 303 303 303 304 305 305 307 313 315 315 313 315 318 314 316 315 312 310 311 314 312 312 312 313 311 325 334 336 340 344 339 345 343 345 344 345 345 344
299 299 299 300 301 301 302 303 304 305 306 305 307 308 315 311 313 316 322 319 318 316 313 309 309 310 314 314 314 313 314 314 320 336 340 342 341 345 342 344 347 346 345 343 343
298 298 299 300 301 301 302 303 305 307 307 307 308 312 318 310 318 320 318 316 315 317 309 310 311 314 316 316 315 316 317 318 338 342 343 340 345 342 342 344 346 346 344 343 341
297 298 298 299 301 302 303 305 310 310 308 308 309 317 311 312 314 315 318 318 318 314 312 315 313 315 316 315 315 317 314 314 330 342 338 341 349 338 343 346 346 345 345 341 338
297 298 298 299 301 302 304 310 313 311 308 309 314 317 310 315 317 318 317 317 322 320 313 315 315 314 315 314 312 313 317 316 328 340 339 339 350 340 342 347 346 344 343 339 335
297 298 299 300 301 303 308 316 314 316 315 314 316 314 312 318 321 321 320 318 322 318 317 316 311 313 310 312 312 317 318 317 316 326 341 344 347 343 344 347 345 342 340 336 333
297 298 300 301 302 306 315 317 310 311 319 316 315 312 314 316 318 320 319 318 318 315 316 314 313 314 314 314 315 317 317 317 316 318 326 346 347 346 345 347 343 339 337 334 330
297 299 300 301 303 315 309 310 314 313 312 311 314 315 316 316 317 317 320 318 317 317 315 313 314 314 314 315 316 316 317 316 315 318 316 320 346 348 346 345 340 337 335 332 327
298 299 301 303 306 310 309 312 313 313 311 314 313 315 314 315 315 317 318 317 319 318 317 314 315 316 317 316 317 316 316 316 317 328 339 348 352 350 345 345 340 338 337 331 331
298 300 301 303 306 307 312 313 315 313 312 316 320 317 317 317 318 318 319 319 319 318 316 317 317 319 318 318 316 317 316 317 317 324 328 333 338 350 348 347 345 339 334 331 329
298 300 302 304 306 307 312 314 315 315 311 315 317 318 315 316 317 319 319 319 319 319 317 318 320 320 320 320 318 319 319 317 317 326 330 329 330 341 346 345 347 340 335 331 326
300 302 304 307 308 310 313 316 313 313 310 317 315 314 315 316 317 317 320 319 319 319 319 318 318 319 319 320 319 319 318 315 318 324 330 327 328 333 349 349 346 343 336 331 325
301 304 308 309 312 315 318 310 308 307 314 316 314 314 314 315 318 318 319 319 320 321 320 320 320 320 320 321 319 317 314 316 317 318 322 323 327 327 340 340 341 344 336 330 324
302 306 314 315 317 318 313 306 308 314 316 315 315 315 316 315 316 322 318 318 318 320 319 320 322 320 320 319 319 316 314 316 319 319 319 324 329 332 336 335 337 341 335 326 324
304 309 316 317 320 319 303 305 310 316 315 315 317 315 315 321 316 320 322 321 320 318 320 320 321 321 320 320 319 319 318 315 316 321 323 323 334 330 337 333 332 333 331 326 324
306 309 316 319 320 316 304 308 312 313 318 320 323 323 323 319 319 318 320 324 323 326 319 320 321 321 321 320 319 319 318 320 317 322 326 325 335 329 340 338 334 332 331 327 325
306 305 314 320 322 315 312 313 315 319 323 326 324 324 323 326 325 319 320 324 329 327 324 324 318 325 320 320 319 319 319 319 317 320 322 323 330 325 332 337 335 334 330 328 326
303 304 312 315 315 310 313 311 315 318 319 322 323 325 326 326 325 320 325 328 325 330 331 328 321 321 322 320 321 320 320 318 321 321 323 323 324 324 324 331 333 334 332 329 327
302 304 312 312 310 305 307 310 313 313 313 321 325 326 324 326 324 328 329 326 325 329 331 329 326 329 328 323 321 325 322 320 319 321 328 328 326 321 322 325 331 333 333 330 328
304 306 302 302 302 306 307 308 310 311 316 323 325 324 322 324 325 326 328 326 324 328 333 329 326 328 332 330 330 333 329 325 323 323 324 326 326 326 323 324 330 331 332 331 328
300 303 301 303 301 303 305 306 309 309 310 310 315 322 323 320 321 326 325 322 323 326 328 329 332 332 330 330 329 330 331 327 327 324 326 324 326 324 322 320 331 333 332 332 328
303 302 301 300 301 304 302 305 308 308 309 311 311 313 317 317 321 316 316 319 323 322 325 328 330 332 330 328 329 331 329 330 327 328 327 325 326 321 321 322 334 334 334 333 328
301 302 299 300 302 302 304 304 307 305 307 310 309 309 314 315 308 308 307 310 317 322 321 326 329 333 331 329 330 330 328 328 328 327 328 327 325 322 323 324 333 334 334 333 327
Wind_Speed
19 19 20 20 20 20 21 21 20 19 20 20 20 19 19 19 19 16 8 19 7 6 16 13 1 2 3 2 3 4 4 4 7 7 5 4 6 3 2 3 8 9 6 12 29
21 20 20 21 22 22 22 22 21 21 23 21 20 19 17 17 17 13 13 13 13 9 5 4 3 3 2 2 1 4 4 10 8 7 8 10 7 8 5 9 7 8 17 28 30
21 21 21 22 23 23 23 23 23 24 24 22 21 17 13 11 5 7 9 11 11 13 7 2 2 2 2 2 2 4 6 8 6 9 16 16 6 5 5 13 10 20 18 21 25
22 22 23 24 24 25 24 25 23 25 25 23 19 13 7 4 3 1 7 7 11 16 7 2 3 4 3 3 2 1 7 5 6 6 9 14 8 5 10 4 10 19 22 19 17
21 23 25 26 26 26 25 25 24 26 25 21 15 6 2 2 9 8 12 4 13 14 8 4 4 4 2 3 3 5 4 7 8 13 10 14 10 5 3 9 17 16 16 17 14
22 25 26 27 27 27 27 26 27 26 22 16 9 2 2 3 5 9 6 5 10 16 7 8 6 6 2 2 2 3 4 1 8 8 8 13 6 6 6 15 17 15 13 12 13
24 27 28 28 28 29 28 29 28 23 16 9 3 5 1 14 1 6 3 3 7 14 5 9 8 3 2 6 4 3 5 5 1 7 6 13 2 6 7 15 17 15 13 12 10
27 28 30 30 30 30 30 29 23 14 5 2 5 4 7 6 4 15 15 18 15 11 15 4 12 2 3 3 7 4 4 3 3 6 6 5 15 7 12 18 17 15 13 12 12
30 31 32 32 32 32 29 20 7 6 4 8 6 2 9 7 9 12 17 11 8 9 12 5 4 4 4 3 5 6 2 2 1 5 6 3 4 9 12 14 15 14 12 12 10
32 34 35 31 31 31 21 4 5 4 6 2 1 2 7 2 3 5 13 17 5 2 1 3 4 2 4 5 3 2 3 2 4 8 9 13 7 11 17 17 17 13 12 11 12
36 37 35 32 33 20 16 1 4 3 3 6 7 6 10 13 15 1 5 8 2 4 3 2 4 4 7 6 5 1 2 3 5 8 6 16 10 20 21 13 10 8 8 7 7
39 40 35 32 26 7 11 4 4 6 10 11 19 15 25 6 6 8 2 5 6 7 2 5 5 10 5 3 4 3 3 8 9 4 9 4 7 19 16 11 16 18 12 14 14
40 41 37 31 11 5 9 1 14 11 3 8 5 4 6 12 9 9 6 4 4 5 4 6 8 3 4 5 4 4 4 6 8 5 5 9 4 9 3 5 14 17 20 21 22
42 40 38 28 2 13 6 16 21 0 5 7 6 5 2 4 5 11 11 6 1 9 6 5 6 7 4 6 6 5 7 10 8 3 5 3 3 5 10 11 13 16 16 19 11
43 40 33 15 10 4 9 20 16 3 4 11 6 2 2 3 7 3 7 5 8 7 7 9 2 1 4 7 6 11 6 10 7 5 3 2 5 3 10 7 16 19 15 13 15
41 39 25 7 7 6 17 19 2 5 2 8 3 9 4 3 5 6 2 4 5 4 2 8 1 4 7 5 7 7 6 6 6 3 1 7 6 4 10 20 18 13 14 13 14
39 32 12 4 3 11 15 3 5 4 5 7 6 9 5 8 8 1 2 1 5 2 5 3 7 3 5 6 1 3 5 3 2 2 5 2 4 7 18 5 17 23 19 15 16
40 20 6 5 7 11 6 5 4 1 2 4 7 9 3 10 7 8 7 2 1 1 2 4 9 7 4 8 7 6 8 5 7 4 6 1 5 5 4 5 11 14 14 15 16
38 13 3 3 4 6 5 5 5 2 3 6 8 4 5 7 3 8 5 1 3 4 5 4 8 10 4 7 6 4 4 4 5 2 3 3 4 4 4 6 7 13 15 18 18
22 13 6 5 0 7 5 2 2 3 6 3 4 3 4 6 8 6 4 1 6 4 4 3 6 8 12 3 5 7 5 2 3 4 4 4 3 5 5 9 9 11 15 16 16
8 4 10 7 3 5 3 4 3 4 6 4 3 4 3 3 3 4 3 3 12 6 3 4 2 8 4 5 9 2 2 1 4 5 6 4 6 8 14 14 16 16 17 20 19
6 2 15 6 4 2 1 4 5 5 3 3 2 3 2 4 3 3 4 4 14 10 2 2 2 5 8 8 5 4 6 7 5 5 2 4 6 5 11 14 16 15 16 17 18
3 3 9 7 3 2 5 5 4 6 6 4 4 4 2 2 5 4 5 6 11 5 5 4 2 4 13 8 8 5 5 4 4 3 6 6 6 3 6 9 14 15 14 14 15
2 4 4 5 3 3 4 4 6 8 3 4 2 2 2 1 3 4 4 4 9 6 5 1 1 5 5 5 6 12 23 4 6 4 4 6 4 5 7 10 9 12 13 16 17
4 0 2 3 3 3 2 4 3 6 5 8 3 3 2 3 3 1 3 6 5 1 4 3 4 5 8 9 12 19 24 21 7 6 6 6 10 9 9 10 11 11 12 14 16
2 3 4 0 3 3 4 4 5 5 3 5 3 9 4 3 2 6 4 4 6 3 3 1 4 4 8 14 13 22 32 25 10 4 4 6 5 5 3 6 8 14 16 18 18
5 3 3 2 2 1 1 3 4 6 4 4 3 5 4 1 9 15 13 11 10 4 2 3 4 3 5 4 5 16 7 13 9 7 9 5 10 8 6 8 12 14 18 20 18
Wind_Direction
358 354 349 346 342 338 335 332 330 327 326 324 320 318 318 318 314 298 251 251 232 258 247 273 72 30 142 191 164 130 80 153 188 154 225 187 174 159 262 152 179 193 113 134 135
358 353 350 346 341 336 333 330 328 327 326 321 319 316 317 322 315 266 286 281 240 209 175 149 91 21 51 223 263 112 133 201 193 154 187 178 174 160 187 195 197 96 106 132 136
359 353 351 345 340 334 331 329 326 326 325 319 318 315 318 328 308 251 337 326 200 198 175 86 97 110 97 315 204 154 178 187 188 191 173 170 209 157 181 185 196 151 142 146 134
356 353 348 342 339 334 329 327 324 324 321 316 315 314 323 349 306 269 358 353 163 182 203 115 94 111 124 205 239 163 237 155 189 165 144 173 139 176 180 245 168 155 145 144 143
354 349 346 341 338 333 329 326 323 322 317 313 311 311 58 19 251 286 300 321 155 173 184 155 160 140 173 206 203 200 246 153 177 164 168 143 161 160 222 113 118 138 144 148 148
351 347 343 340 336 332 328 324 322 317 313 308 304 169 141 274 275 307 272 170 186 183 179 164 192 205 184 246 175 209 249 255 182 196 146 137 129 155 206 138 128 141 146 146 145
350 345 342 338 335 331 328 323 320 312 306 297 283 132 214 239 175 23 156 217 216 204 167 197 205 37 54 311 249 259 318 58 2 130 143 113 86 217 156 147 146 151 147 139 128
348 344 342 338 334 332 327 325 319 310 302 299 142 123 248 271 277 265 236 274 250 234 234 223 209 174 168 256 355 6 49 52 237 145 163 111 206 197 164 159 161 155 156 143 144
350 345 343 339 335 333 327 331 3 59 66 120 119 140 268 294 271 248 234 232 230 241 245 281 162 183 42 64 11 8 252 132 159 234 154 155 216 194 169 171 165 165 150 140 132
351 347 344 340 337 332 336 23 77 75 91 94 76 352 275 258 350 275 212 219 216 18 179 160 58 69 39 72 235 248 5 345 121 212 179 197 246 173 166 173 180 156 148 147 144
352 347 344 342 340 338 356 73 10 352 189 227 233 248 295 287 291 258 198 148 154 65 218 3 76 221 241 205 193 160 216 281 263 171 143 214 203 176 176 185 140 125 104 88 77
352 350 343 342 341 10 6 65 116 303 297 239 245 247 253 318 324 300 161 139 137 203 104 11 250 235 215 192 227 215 281 278 283 273 181 197 224 177 168 168 153 142 135 168 159
350 350 342 342 347 358 334 25 335 347 270 302 220 229 236 168 213 262 166 159 149 165 165 181 239 138 160 262 237 237 208 259 228 60 54 105 37 144 150 134 170 180 171 172 188
348 348 340 342 49 340 307 336 335 236 36 289 356 328 89 156 234 214 187 136 212 197 173 224 263 235 215 245 151 283 221 252 266 132 227 176 222 214 178 178 181 196 185 185 166
347 346 335 333 305 294 319 329 335 101 32 332 1 262 76 180 292 274 170 98 197 194 122 241 232 151 237 224 157 237 266 233 229 198 130 295 92 258 159 215 208 205 194 191 176
343 343 330 338 305 316 324 326 56 42 346 337 51 329 7 291 251 330 141 84 166 194 263 227 329 166 234 266 175 256 296 41 40 92 86 237 146 233 186 209 211 201 191 185 164
341 339 326 291 304 330 326 18 40 101 335 358 343 335 328 342 344 134 180 170 185 142 266 289 260 242 217 285 299 128 74 303 333 5 213 233 119 228 215 237 203 194 184 176 159
340 340 328 275 314 329 357 51 77 334 329 328 331 313 41 6 341 11 354 306 179 307 230 215 300 187 191 192 215 182 168 169 221 191 238 66 198 257 120 168 166 179 174 155 167
340 342 323 8 354 356 64 61 186 224 323 322 321 10 337 352 324 359 348 3 349 165 205 205 252 260 190 217 150 281 236 216 113 16 99 227 297 351 92 102 130 152 159 173 176
339 333 1 337 181 32 69 218 241 257 312 316 14 337 338 350 1 7 327 340 347 55 168 296 294 250 273 135 244 175 183 289 350 155 221 259 245 223 196 190 155 171 182 181 177
354 31 11 36 322 46 102 246 292 336 16 357 331 292 12 22 278 300 280 58 350 307 356 4 127 306 180 198 228 228 243 107 139 152 178 214 252 210 195 187 174 187 188 184 181
359 41 5 2 47 21 28 313 288 331 357 340 54 50 24 310 302 303 39 350 342 327 15 136 103 300 252 260 237 186 238 170 157 248 168 164 265 213 179 180 180 190 190 188 185
10 272 349 7 95 356 312 313 331 345 336 342 42 39 12 310 323 34 346 309 335 354 15 336 360 347 337 1 11 332 228 157 124 85 196 149 254 243 167 167 189 183 185 181 178
33 355 336 33 24 91 0 339 344 335 82 27 52 69 36 344 290 305 334 322 323 356 360 148 123 131 210 255 308 301 306 247 146 132 187 207 221 203 214 193 169 184 180 175 180
24 17 177 335 353 358 270 351 4 356 4 25 7 55 318 293 318 210 262 301 295 308 353 84 218 207 228 288 314 309 309 282 206 183 173 218 183 220 206 188 178 160 162 171 176
64 25 359 227 300 322 1 18 30 329 303 348 34 307 253 257 88 296 337 230 232 305 3 242 261 235 255 281 284 308 307 283 224 163 119 143 237 194 180 96 147 168 169 183 186
21 25 98 314 353 100 82 315 44 345 293 103 341 345 305 13 316 279 252 248 248 250 221 257 200 171 267 271 333 309 293 305 223 199 145 164 218 157 167 186 177 175 182 188 183